Regional Weather Roundup
Issued by NWS Upton, NY

Home | Current Version | Previous Version | Text Only | Print | Product List | Glossary On
Versions: 1 2 3 4 5 6 7 8 9 10 11 12 13 14 15 16 17 18 19 20 21 22 23 24 25 26 27 28 29 30 31 32 33 34 35 36 37 38 39 40 41 42 43 44 45 46 47 48 49 50
000
ASUS41 KOKX 010905
RWROKX

REGIONAL WEATHER ROUNDUP
NATIONAL WEATHER SERVICE NEW YORK NY
400 AM EST SUN MAR 01 2015

NOTE: "FAIR" INDICATES FEW OR NO CLOUDS BELOW 12,000 FEET WITH NO
SIGNIFICANT WEATHER AND/OR OBSTRUCTIONS TO VISIBILITY.

NYZ071-072-176-178-NJZ106-104-011000-
NEW YORK CITY METRO AREA


CITY           SKY/WX    TMP DP  RH WIND       PRES   REMARKS
CENTRAL PARK   CLEAR     25  -1  32 CALM      30.69F
LAGUARDIA APRT PTCLDY    24   4  42 CALM      30.68F
KENNEDY INTL   PTCLDY    20   9  62 SW7       30.70F WCI  11
NEWARK/LIBERTY PTCLDY    19   5  54 SW7       30.69F WCI  10
BRNX BOT. GARD   N/A    N/A N/A N/A CALM      30.69R
TETERBORO      CLEAR     16   8  71 CALM      30.68F
$$

NYZ177-179-078>081-011000-
LONG ISLAND NEW YORK

CITY           SKY/WX    TMP DP  RH WIND       PRES   REMARKS
FARMINGDALE    CLEAR     16   9  74 CALM      30.68F
ISLIP          CLEAR     15   5  64 CALM      30.67F
SHIRLEY        CLEAR      9   0  67 CALM      30.69F
WESTHAMPTON    CLEAR      1  -7  68 CALM      30.70F
MONTAUK POINT    N/A     13   5  70 CALM      30.70F
$$

NYZ052-065-067-011000-
HUDSON VALLEY

CITY           SKY/WX    TMP DP  RH WIND       PRES   REMARKS
WHITE PLAINS   PTCLDY    12   3  67 NW3       30.64F
NEWBURGH       CLEAR      7   1  78 VRB3      30.65
MONTGOMERY     PTCLDY     2  -4  76 CALM      30.64F
POUGHKEEPSIE   PTCLDY     4  -2  76 CALM      30.68F
ALBANY         MOCLDY     5  -3  69 CALM      30.67F
$$

NJZ001-105-106-008-010-013-015-019>022-104-011000-
NEW JERSEY

CITY           SKY/WX    TMP DP  RH WIND       PRES   REMARKS
NEWARK/LIBERTY PTCLDY    19   5  54 SW7       30.69F WCI  10
TETERBORO      CLEAR     16   8  71 CALM      30.68F
CALDWELL       CLEAR     11   2  67 CALM      30.69F
MORRISTOWN     CLEAR      9   3  78 CALM      30.69R
SOMERVILLE     PTCLDY     7   1  76 CALM      30.67F
SUSSEX         MIX PCPN   5  -2  72 SW3       30.64F
ANDOVER          N/A      6   1  80 CALM      30.64F
TRENTON        CLOUDY    17   6  62 CALM      30.67F
MILLVILLE      PTCLDY   N/A N/A N/A CALM      30.69F
ATLANTIC CITY  PTCLDY    15   7  70 CALM      30.70F
WRIGHTSTOWN    MOCLDY    13   8  81 SE2       30.66F
TOMS RIVER     MOCLDY     9   5  85 CALM      30.70F
BELMAR         PTCLDY    16   3  57 CALM      30.67F
$$

PAZ047>061-062-071-011000-
EASTERN PENNSYLVANIA

CITY           SKY/WX    TMP DP  RH WIND       PRES   REMARKS
PHILADELPHIA   CLOUDY    23  13  65 SW3       30.72S
ALLENTOWN      CLOUDY    11   3  70 NW5       30.66F WCI   3
SCRANTON       CLOUDY    13   0  56 CALM      30.58F
$$

CTZ002-004>006-009-010-012-RIZ004-006-007-MAZ004-011-015-011000-
SOUTHERN NEW ENGLAND
 IN CT

CITY           SKY/WX    TMP DP  RH WIND       PRES   REMARKS
BRADLEY INTL   PTCLDY     5  -5  63 CALM      30.67F
HARTFORD       PTCLDY     4   1  88 CALM      30.70F
DANBURY        PTCLDY     3  -5  69 CALM      30.67F
WTRBRY/OXFORD  PTCLDY     9  -8  47 CALM      30.63S
BRIDGEPORT     PTCLDY    13   7  77 N3        30.69F
MERIDEN        PTCLDY     5  -1  76 CALM      30.69F
NEW HAVEN      PTCLDY     7   3  84 CALM      30.68F
CHESTER        FAIR      18   0  45 CALM      30.66S
GROTON         CLEAR      7   4  87 N3        30.69F
WILLIMANTIC    PTCLDY     0  -6  76 CALM      30.69F

 IN RI

CITY           SKY/WX    TMP DP  RH WIND       PRES   REMARKS
PROVIDENCE     PTCLDY    10   0  63 CALM      30.68F
BLOCK ISLAND   CLEAR     21   9  58 NW3       30.66F
WESTERLY       CLEAR      2  -2  83 CALM      30.69F

 IN MA

CITY           SKY/WX    TMP DP  RH WIND       PRES   REMARKS
BOSTON         PTCLDY    16   3  56 CALM      30.68S
WORCESTER      PTCLDY    17  -2  43 W8        30.58F WCI   7
WESTFIELD      CLEAR      0  -6  76 CALM      30.67F
PROVINCETOWN   CLEAR     10   9  92 W3        30.69R
NANTUCKET      CLEAR     18  11  74 NW5       30.69R WCI  11
$$

ANZ330-335-338-340-345-350-353-355-011000-
COASTAL MARINE OBSERVATIONS


STATION/POSITION TIME  SKY/WX   TEMP    WIND        PRES    VSBY  WAVE
                                AIR SEA DIR/SP/G                  HT/PER
                 (UTC)          (F)     (DEG/KT/KT) (MB)    (MI)  (FT/S)
NY HARB ENTRANCE 0900            28 37  250/  8/ 10 1039.2          1/10
4S FIRE IS       0900               32                N/A           2/ 9
20S FIRE ISLAND  0800               37              1040.5          2/ 9
23SW MTP         0900                                 N/A           2/10
HUDSON CANYON    NOT AVBL
EXECUTION ROCKS  NOT AVBL
WESTERN LI SOUND NOT AVBL
CENTRAL LI SOUND NOT AVBL
EASTERN LI SOUND NOT AVBL
ROBBINS REEF     0900            23     240/  7/  9 1038.0
$$


>>>>>>>>>>>>>>>>>>>>>>>>>>>> KEY <<<<<<<<<<<<<<<<<<<<<<<<<<<
>                                                          <
>     SKY/WX - SKY CONDITION/PRESENT WEATHER               <
>     TMP    - TEMPERATURE IN FAHRENHEIT                   <
>     DP     - DEWPOINT IN FAHRENHEIT                      <
>     RH     - RELATIVE HUMIDITY IN PERCENT                <
>     WIND   - DIRECTION AND SPEED IN MPH                  <
>     PRES   - MEAN SEA LEVEL PRESSURE IN INCHES OF HG     <
>     WCI    - WIND CHILL INDEX                            <
>     VSB    - VISIBILITY IN MILES                         <
>     HX     - HEAT INDEX                                  <
>     TC     - TEMPERATURE IN CELSIUS                      <
>     VRB    - VARIABLE WIND DIRECTION                     <
>                                                          <
>>>>>>>>>>>>>>>>>>>>>>>>>>>> KEY <<<<<<<<<<<<<<<<<<<<<<<<<<<





USA.gov is the U.S. government's official web portal to all federal, state and local government web resources and services.